Погода в Колосовке

Россия / Калининградская область     54°48′02″N   20°18′17″E
темп.,
°C
ветер,
м/с
пор.,
м/с
влажн.,
%
обл.,
%
осадки,
мм/ч
давл.,
гПа
погр.,
м
17 апреля, сб
сб1723:00+8ссв3885100 0.1 1019168
02:00+8св4108266 0.1 1019248
05:00+6св399396 0.0 1019183
08:00+9всв488698 0.0 1020374
11:00+9св4690100 0.6 1020372
14:00+13всв567333 0.6 1021854
17:00+13св467361 0.1 1020675
20:00+9св38927 0.2 1021142
18 апреля, вс
вс1823:00+10всв3888100 0.0 1022228
02:00+9всв4108765 0.0 1022272
05:00+6всв389322 0.0 1022143
08:00+10всв47829 0.0 1022291
11:00+14всв47685 0.0 1022837
14:00+16св566271 0.0 10211268
17:00+15св576523 0.0 1021528
20:00+11всв358110 0.1 102181
19 апреля, пн
пн1923:00+11всв387888 0.0 1022177
02:00+10всв3680100 0.0 1022132
05:00+10в3685100 0.0 1021166
08:00+9в3883100 0.0 1022264
11:00+12вюв466361 0.0 1022665
14:00+14всв46537 0.0 10211381
17:00+12всв686888 0.1 1020708
20:00+8всв488038 0.2 1020221
20 апреля, вт
вт2023:00+8всв3780100 0.0 1020263
02:00+8св2479100 0.1 1019112
05:00+7св3681100 0.1 1018177
08:00+9св477699 0.1 1017364
11:00+10св4573100 0.8 1016573
14:00+12св456369 1.4 10151112
17:00+11с56636 0.2 1014868
20:00+6с368434 0.2 1013110
21 апреля, ср
ср2123:00+5ссз338414 0.0 101249
02:00+4ссз349122 0.0 100877
05:00+4ссз3889100 0.0 1007174
08:00+7ссз4875100 0.0 1006387
11:00+9сз6862100 0.0 1006844
14:00+9сз686181 0.0 1007969
17:00+8сз5765100 0.0 1008649
20:00+4зсз34890 0.0 100962